Location: Bergnerzell
(49.1816°N, 10.2565°E)
Time: 21:04:58
(UTC+00:00)

Cosmos 2360 Rocket - Pass Details

Date: 23 May 2024
Orbit: 832 x 846 km, 71.0° (Epoch: 24 June)

Event Time Altitude Azimuth Distance (km) Brightness Sun altitude
Rises 00:13:16 0° 334° (NNW) 3,416 6.2 -19.0°
Reaches altitude 10° 00:16:03 10° 346° (NNW) 2,478 5.5 -18.9°
Maximum altitude 00:20:59 29° 46° (NE) 1,506 4.1 -18.7°
Drops below altitude 10° 00:25:52 10° 106° (ESE) 2,468 4.6 -18.5°
Sets 00:28:38 0° 117° (ESE) 3,399 5.3 -18.3°
